Content
SEND FEEDBACK

Daily
Averages
Monthly
Summary
United States of America

DUNSMUIR, CALIFORNIA


Home > North America > United States > California
Elevation: 3289 feet     Latitude: 41 12N     Longitude: 122 16W

WEATHER
 
SELECT A DAY
Number of Records: 231,425;   Date Range: 1/1/95 - 8/12/14
 
SHARE

PRINT THIS DATA

[ ← Previous Day ]
WEATHER ALMANAC - APRIL 18, 2013
[ Next Day → ]
[ °C ]   °F
Weather ElementAverageHighLow
Temperature50.4 °F64 °F (3:56 pm)35.1 °F (5:56 am)
Dewpoint30.6 °F34 °F (8:56 pm)27 °F (5:56 am)
Humidity48.8 %72 % (5:56 am)31 % (3:56 pm)
Barometer30.38 in30.43 in (7:56 am)30.33 in (4:56 pm)
Wind Speed5.9 mph10.4 mph (9:56 am)
Wind Gust19.6 mph (9:56 am)
Weather ElementAverage
Visibility10 mi
Wind DirectionESE (100.9 °)

Weather ElementTotal
Precipitation---
Heating Degree Days15.5 (Base 65)
Averaged from 23 records on April 18, 2013
WEATHER CONDITIONS BREAKOUT
WIND DIRECTION BREAKOUT
WEATHER BY HOUR - APRIL 18, 2013
[ °C ]   °F
Local TimeTemperatureDewpointHumidityBarometerVisibilityWind DirectionWind SpeedGust SpeedPrecipitationEventsConditions
1:56 AM39.9 °F28.0 °F63 %30.40 in10.0 miNNE (20°)4.6 mphClear
2:56 AM39.0 °F28.0 °F65 %30.39 in10.0 miVariable4.6 mphClear
3:56 AM39.0 °F28.0 °F65 %30.39 in10.0 miVariable5.8 mphClear
4:56 AM37.9 °F28.0 °F68 %30.40 in10.0 miNE (40°)5.8 mphClear
5:56 AM35.1 °F27.0 °F72 %30.40 in10.0 miVariable3.5 mphClear
6:56 AM37.0 °F28.0 °F70 %30.42 in10.0 miVariable3.5 mphClear
7:56 AM41.0 °F28.0 °F60 %30.43 in10.0 miVariable6.9 mphClear
8:56 AM45.0 °F28.0 °F52 %30.43 in10.0 miNorth (350°)8.1 mph18.4 mphClear
9:56 AM46.9 °F28.0 °F48 %30.42 in10.0 miNorth (10°)10.4 mph19.6 mphClear
10:56 AM52.0 °F28.9 °F41 %30.43 in10.0 miNorth (350°)10.4 mph17.3 mphClear
11:56 AM55.0 °F30.9 °F40 %30.41 in10.0 miVariable3.5 mphClear
12:56 PM57.9 °F32.0 °F37 %30.38 in10.0 miVariable5.8 mphClear
1:56 PM61.0 °F32.0 °F34 %30.36 in10.0 miVariable5.8 mphClear
2:56 PM62.1 °F32.0 °F32 %30.36 in10.0 miWNW (300°)9.2 mph17.3 mphClear
3:56 PM64.0 °F33.1 °F31 %30.34 in10.0 miNW (310°)8.1 mph19.6 mphClear
4:56 PM62.1 °F33.1 °F34 %30.33 in10.0 miVariable5.8 mphClear
5:56 PM62.1 °F32.0 °F32 %30.33 in10.0 miNW (310°)8.1 mphClear
6:56 PM61.0 °F32.0 °F34 %30.34 in10.0 miNW (320°)8.1 mphClear
7:56 PM57.9 °F33.1 °F39 %30.34 in10.0 miVariable5.8 mphClear
8:56 PM53.1 °F34.0 °F48 %30.34 in10.0 miWNW (290°)4.6 mphClear
9:56 PM51.1 °F34.0 °F52 %30.37 in10.0 miCalmClear
10:56 PM50.0 °F33.1 °F52 %30.35 in10.0 miNNE (20°)4.6 mphClear
11:56 PM48.9 °F33.1 °F54 %30.34 in10.0 miVariable3.5 mphClear
Hourly data recorded from KMHS, located miles away from Dunsmuir, California







STORIES FROM OUR PARTNERS